Location: Prostejov
(49.4670°N, 17.1170°E)
Time: 15:13:40
(UTC+02:00)

ISS - Visible Passes

Search period start: 18 September 2018 00:00
Search period end: 28 September 2018 00:00
Orbit: 402 x 408 km, 51.6° (Epoch: 18 September)

Date Brightness Start Highest point End Pass type
(mag) Time Alt. Az. Time Alt. Az. Time Alt. Az.
22 Sep -2.1 20:26:53 10° SSW 20:28:32 20° S 20:28:32 20° S visible
23 Sep -1.9 19:35:45 10° S 19:37:49 16° SE 19:39:09 13° ESE visible
23 Sep -1.7 21:10:35 10° WSW 21:11:51 21° SW 21:11:51 21° SW visible
24 Sep -3.5 20:18:43 10° SW 20:21:53 45° SSE 20:22:16 43° SE visible
25 Sep -2.8 19:27:02 10° SSW 19:29:57 29° SE 19:32:31 12° E visible
25 Sep -2.6 21:02:57 10° WSW 21:05:12 40° W 21:05:12 40° W visible
26 Sep -3.9 20:10:53 10° WSW 20:14:11 78° SSE 20:15:20 37° ENE visible
26 Sep -0.6 21:47:33 10° W 21:48:00 13° W 21:48:00 13° W visible
27 Sep -3.6 19:18:55 10° SW 19:22:09 53° SSE 19:25:21 10° ENE visible
27 Sep -2.9 20:55:23 10° W 20:58:02 48° WNW 20:58:02 48° WNW visible
